Location: Haulchin
(50.3172°N, 3.4360°E)
Time: 05:01:53
(UTC+00:00)

Cosmos 1356 Rocket - Pass Details

Date: 23 May 2024
Orbit: 530 x 579 km, 81.2° (Epoch: 19 June)

Event Time Altitude Azimuth Distance (km) Brightness Sun altitude
Exits shadow 01:22:38 26° 234° (SW) 1,112 4.4 -15.7°
Maximum altitude 01:24:26 42° 288° (WNW) 803 4.1 -15.6°
Drops below altitude 10° 01:28:24 10° 0° (N) 1,874 7.1 -15.3°
Sets 01:30:42 0° 8° (N) 2,785 8.4 -15.2°
